Weather History for Lattakia, Syria

Change the Weather History Date:

Thursday, December 12, 2013

  Actual Average Record
Temperature  
Mean Temperature 44 °F -  
Max Temperature 52 °F - - ()
Min Temperature 35 °F - - ()
Degree Days  
Heating Degree Days 22    
Moisture  
Dew Point 23 °F    
Average Humidity 47    
Maximum Humidity 75    
Minimum Humidity 22    
Precipitation  
Precipitation 0.00 in - - ()
Sea Level Pressure  
Sea Level Pressure 29.83 in    
Wind  
Wind Speed 6 mph ()    
Max Wind Speed 14 mph    
Max Gust Speed 25 mph    
Visibility 6.9 miles    
Events      
T = Trace of Precipitation, MM = Missing Value Source: Averaged Metar Reports

Daily Weather History Graph

Daily Weather History Graph

Search for Another Location

Airport:

Trip Planner

Search our weather history database for the weather conditions in past years. The results will help you decide how hot, cold, wet, or windy it might be!

Date:

Astronomy

Dec. 12, 2013 Rise Set
Actual Time 6:35 AM EET 4:24 PM EET
Civil Twilight 6:07 AM EET 4:52 PM EET
Nautical Twilight 5:35 AM EET 5:24 PM EET
Astronomical Twilight 5:04 AM EET 5:55 PM EET
Moon 1:12 PM EET (12/12) 1:45 AM EET (12/12)
Length of Visible Light 10h 44m
Length of Day
9h 48m
Waxing Gibbous, 78% of the Moon is Illuminated
Dec 12
Waxing Gibbous
Dec 17
Full
Dec 25
Last Quarter
Jan 1
New
Jan 8
First Quarter

Hourly Weather History & Observations

Time (EET) Temp. Windchill Dew Point Humidity Pressure Visibility Wind Dir Wind Speed Gust Speed Precip Events Conditions
12:00 AM 41.0 °F 33.5 °F 26.6 °F 57% 29.80 in 6.2 mi North 13.8 mph 23.0 mph N/A   Mostly Cloudy
1:00 AM 39.2 °F 31.2 °F 24.8 °F 56% 29.80 in 6.2 mi North 13.8 mph 25.3 mph N/A   Mostly Cloudy
2:00 AM 39 °F - 24 °F 43% 29.79 in 9 mi NNE 2.3 mph - -  
2:00 AM 39.2 °F 31.2 °F 23.0 °F 52% 29.80 in 6.2 mi North 13.8 mph 25.3 mph N/A   Mostly Cloudy
3:00 AM 39.2 °F 34.2 °F 24.8 °F 56% 29.80 in 6.2 mi NW 6.9 mph - N/A   Partly Cloudy
4:00 AM 37.4 °F 32.1 °F 24.8 °F 60% 29.80 in 6.2 mi North 6.9 mph - N/A   Partly Cloudy
5:00 AM 37 °F - 24 °F 47% 29.79 in 9 mi NNE 2.3 mph - -   Scattered Clouds
5:00 AM 33.8 °F 29.6 °F 24.8 °F 70% 29.80 in - North 4.6 mph - N/A   Clear
6:00 AM 32.0 °F 27.5 °F 24.8 °F 75% 29.83 in 6.2 mi NNE 4.6 mph - N/A   Scattered Clouds
7:00 AM 35.6 °F 31.7 °F 19.4 °F 52% 29.83 in 6.2 mi ENE 4.6 mph - N/A   Scattered Clouds
8:00 AM 40 °F - 25 °F 42% 29.81 in 9 mi NNE 1.2 mph - -   Mostly Cloudy
8:00 AM 35.6 °F 31.7 °F 21.2 °F 56% 29.83 in 6.2 mi ENE 4.6 mph - N/A   Mostly Cloudy
9:00 AM 41.0 °F 38.0 °F 23.0 °F 49% 29.83 in 6.2 mi NE 4.6 mph - N/A   Mostly Cloudy
10:00 AM 48.2 °F - 17.6 °F 30% 29.83 in 6.2 mi ENE 4.6 mph - N/A   Mostly Cloudy
11:00 AM 53 °F - 28 °F 25% 29.80 in 9 mi East 2.2 mph - -   Mostly Cloudy
11:00 AM 51.8 °F - 14.0 °F 22% 29.83 in 6.2 mi South 4.6 mph - N/A   Mostly Cloudy
12:00 PM 48.2 °F - 17.6 °F 30% 29.80 in 6.2 mi South 6.9 mph - N/A   Mostly Cloudy
1:00 PM 48.2 °F - 17.6 °F 30% 29.80 in 6.2 mi South 6.9 mph - N/A   Mostly Cloudy
2:00 PM 49 °F - 31 °F 37% 29.80 in 9 mi WNW 2.3 mph - -   Mostly Cloudy
2:00 PM 48.2 °F - 24.8 °F 40% 29.80 in 6.2 mi SSE 4.6 mph - N/A   Mostly Cloudy
3:00 PM 46.4 °F 44.3 °F 24.8 °F 43% 29.83 in 5.0 mi ENE 4.6 mph - N/A   Mostly Cloudy
4:00 PM 44.6 °F 40.7 °F 28.4 °F 53% 29.83 in 6.2 mi ENE 6.9 mph - N/A   Mostly Cloudy
5:00 PM 40 °F - 26 °F 45% 29.86 in 9 mi North 6.7 mph - -   Partly Cloudy
5:00 PM 39.2 °F 35.9 °F 28.4 °F 65% 29.86 in 6.2 mi ENE 4.6 mph - N/A   Mostly Cloudy
6:00 PM 37.4 °F 32.1 °F 24.8 °F 60% 29.86 in 6.2 mi NE 6.9 mph - N/A   Scattered Clouds
7:00 PM 37.4 °F 32.1 °F 21.2 °F 52% 29.86 in 6.2 mi ENE 6.9 mph - N/A   Scattered Clouds
8:00 PM 40 °F - 26 °F 45% 29.86 in 9 mi North 3.5 mph - -   Partly Cloudy
8:00 PM 37.4 °F 33.8 °F 23.0 °F 56% 29.89 in 6.2 mi ENE 4.6 mph - N/A   Scattered Clouds
9:00 PM 41.0 °F 38.0 °F 23.0 °F 49% 29.89 in 6.2 mi East 4.6 mph - N/A   Scattered Clouds
10:00 PM 41.0 °F 38.0 °F 21.2 °F 45% 29.89 in 6.2 mi ESE 4.6 mph - N/A   Scattered Clouds
11:00 PM 41 °F - 23 °F 36% 29.87 in 9 mi NNE 4.5 mph - -   Clear
11:00 PM 42.8 °F 40.1 °F 21.2 °F 42% 29.89 in 6.2 mi East 4.6 mph - N/A   Scattered Clouds